CW3008 Weather Reports


time (UTC)temp
C
wind
direction
speed
KPH
gust
KPH
rain 1hr
cm
rain 24hr
cm
rain mn
cm
humidity
%
barometer
mb
20260505094604 11 131 0.0 0.0 0.00 0.00 0.00 82 1008.4
20260505093056 11 131 0.0 0.0 0.00 0.00 0.00 82 1008.5
20260505091553 11 131 0.0 0.0 0.00 0.00 0.00 81 1008.5
20260505090039 11 131 0.0 0.0 0.00 0.00 0.00 81 1008.6
20260505084524 11 131 0.0 0.0 0.00 0.00 0.00 80 1008.5
20260505083018 11 131 0.0 0.0 0.00 0.00 0.00 80 1008.6
20260505081524 11 131 0.0 0.0 0.00 0.00 0.00 79 1008.7
20260505080033 11 131 0.0 0.0 0.00 0.00 0.00 79 1008.8
20260505074515 11 131 0.0 0.0 0.00 0.00 0.00 78 1008.8
20260505073014 11 131 0.0 0.0 0.00 0.00 0.00 77 1008.8
20260505071509 11 131 0.0 0.0 0.00 0.00 0.00 77 1008.9
20260505070011 11 131 0.0 0.0 0.00 0.00 0.00 75 1008.8
20260505064506 11 131 0.0 0.0 0.00 0.00 0.00 74 1008.8
20260505063005 11 131 0.0 0.0 0.00 0.00 0.00 74 1008.8
20260505061505 11 131 0.0 0.0 0.00 0.00 0.00 74 1008.8
20260505060100 11 131 0.0 0.0 0.00 0.00 0.00 73 1009.0
20260505054600 12 131 0.0 0.0 0.00 0.00 0.00 73 1008.9
20260505053055 12 131 0.0 0.0 0.00 0.00 0.00 73 1008.9
20260505051553 12 131 0.0 0.0 0.00 0.00 0.00 72 1009.0
20260505050123 12 131 0.0 0.0 0.00 0.00 0.00 72 1009.1
20260505041556 12 131 0.0 0.0 0.00 0.00 0.00 70 1009.0
20260505040054 12 131 0.0 0.0 0.00 0.00 0.00 69 1008.9
20260505034543 12 131 0.0 0.0 0.00 0.00 0.00 67 1008.9
20260505033046 12 131 0.0 0.0 0.00 0.00 0.00 66 1008.8
20260505031545 12 131 0.0 0.0 0.00 0.00 0.00 65 1008.8
20260505030041 12 131 0.0 0.0 0.00 0.00 0.00 64 1008.9
20260505024537 12 131 0.0 0.0 0.00 0.00 0.00 64 1008.8
20260505023043 13 131 0.0 0.0 0.00 0.00 0.00 64 1008.8
20260505021536 13 131 0.0 0.0 0.00 0.00 0.00 64 1008.9
20260505020036 13 131 0.0 0.0 0.00 0.00 0.00 61 1008.9
20260505014538 14 131 0.0 0.0 0.00 0.00 0.00 59 1008.6
20260505013031 15 131 0.0 0.0 0.00 0.00 0.00 55 1008.4
20260505011531 15 131 0.0 0.0 0.00 0.00 0.00 54 1008.1
20260505010029 15 131 0.0 0.0 0.00 0.00 0.00 55 1007.9
20260505004535 15 131 0.0 0.0 0.00 0.00 0.00 53 1007.7
20260505003027 16 131 0.0 0.0 0.00 0.00 0.00 51 1007.3
20260505001516 16 131 0.0 0.0 0.00 0.00 0.00 50 1006.8
20260505000027 16 131 0.0 0.0 0.00 0.00 0.00 50 1006.5
20260504234516 16 279 0.0 0.0 0.00 0.00 0.00 50 1006.4
20260504233117 16 131 0.0 0.0 0.00 0.00 0.00 49 1006.0
20260504231515 17 131 0.0 0.0 0.00 0.00 0.00 48 1005.8
20260504230018 17 131 0.0 0.0 0.00 0.00 0.00 48 1005.5
20260504224514 17 288 0.0 0.0 0.00 0.00 0.00 47 1005.2
20260504223115 18 238 0.0 0.0 0.00 0.00 0.00 44 1005.1
20260504221520 18 268 0.0 0.0 0.00 0.00 0.00 41 1005.0
20260504220017 20 119 0.0 0.0 0.00 0.00 0.00 37 1004.9
20260504214516 21 275 0.0 0.0 0.00 0.00 0.00 30 1004.8
20260504213148 22 295 0.0 0.0 0.00 0.00 0.00 29 1004.8
20260504211556 22 275 0.0 0.0 0.00 0.00 0.00 28 1004.8
20260504210053 22 239 0.0 0.0 0.00 0.00 0.00 27 1004.9
20260504204523 22 292 0.0 0.0 0.00 0.00 0.00 28 1004.9
20260504203022 23 131 0.0 0.0 0.00 0.00 0.00 27 1004.8
20260504201551 23 273 0.0 0.0 0.00 0.00 0.00 27 1004.9
20260504200052 23 273 0.0 0.0 0.00 0.00 0.00 27 1004.9
20260504194559 23 1 0.0 0.0 0.00 0.00 0.00 26 1005.0
20260504193053 23 284 0.0 0.0 0.00 0.00 0.00 27 1005.0
20260504191544 23 290 0.0 0.0 0.00 0.00 0.00 26 1005.2
20260504190043 22 95 0.0 0.0 0.00 0.00 0.00 27 1005.3
20260504184539 23 250 0.0 0.0 0.00 0.00 0.00 27 1005.4
20260504183036 22 267 0.0 0.0 0.00 0.00 0.00 26 1005.4
20260504181535 22 271 0.0 0.0 0.00 0.00 0.00 28 1005.5
20260504180033 22 284 0.0 0.0 0.00 0.00 0.00 27 1005.7
20260504174529 22 259 0.0 0.0 0.00 0.00 0.00 26 1005.9
20260504173035 22 295 0.0 0.0 0.00 0.00 0.00 28 1005.9
20260504171525 22 354 0.0 0.0 0.00 0.00 0.00 28 1005.7
20260504140106 20 303 0.0 0.0 0.00 0.03 0.00 33 1007.9